Terminal Aerodrome Forecast
Issued by NWS Green Bay, WI

Home | Current Version | Previous Version | Graphics & Text | Print | Product List | Glossary On
Versions: 1 2 3 4 5 6 7 8 9 10 11 12 13 14 15 16 17 18 19 20 21 22 23 24 25 26 27 28 29 30 31 32 33 34 35 36 37 38 39
000
FTUS43 KGRB 021400 AAA
TAFGRB
TAF AMD
KGRB 021433Z 0215/0312 25008KT P6SM VCTS SCT040 BKN090CB
      TEMPO 0215/0219 5SM -SHRA BKN035
     FM022000 26008KT P6SM SCT040 BKN090
     FM022300 23003KT P6SM SCT040=

USA.gov is the U.S. government's official web portal to all federal, state and local government web resources and services.